Location: Unspecified
(0.0000°N, 0.0000°E)
Time: 01:26:44
(UTC+02:00)

Cosmos 2219 - Visible Passes

Search period start: 23 July 2014 00:00
Search period end: 02 August 2014 00:00
Orbit: 834 x 861 km, 71.1° (Epoch: 22 July)

Date Brightness Start Highest point End Pass type
(mag) Time Alt. Az. Time Alt. Az. Time Alt. Az.
24 Jul 5.7 22:30:00 10° NNE 22:30:00 10° NNE 22:30:00 10° NNE visible
25 Jul 4.2 22:13:25 36° NNE 22:13:25 36° NNE 22:16:39 10° NNE visible
26 Jul 3.1 21:51:51 10° SSW 21:57:35 87° ESE 22:03:19 10° NNE visible
27 Jul 3.1 21:38:30 10° SSW 21:44:14 85° ESE 21:49:58 10° NNE visible
28 Jul 3.1 21:25:10 10° SSW 21:30:54 83° ESE 21:36:37 10° NNE visible
29 Jul 3.1 21:11:49 10° SSW 21:17:33 81° ESE 21:23:16 10° NNE visible
30 Jul 3.1 20:58:29 10° SSW 21:04:12 78° ESE 21:09:55 10° NNE visible
31 Jul 3.2 20:45:08 10° S 20:50:52 76° ESE 20:56:34 10° NNE visible
01 Aug 3.2 20:31:48 10° S 20:37:31 74° ESE 20:43:13 10° NNE visible
